Find Kosmos-2390

NORAD ID: 27464 Int'l Des: 2002-036 Owner: KVR Country: RU operational
LEOCIRCULARPOLAR

現在のビュー

3D地球を読み込み中...

About Kosmos-2390

Kosmos-2390 (NORAD 27464) is a satellite launched Jul 8, 2002 by KVR of RU. It operates in LEO, CIRCULAR, POLAR orbit with a mass of 225.00 kg.

次回通過

Passes for default location (London). Set your location on the main map for personalized predictions.

高度履歴

Loading altitude history...

軌道要素

1 27464U 02036A 26194.89030539 .00000025 00000-0 10708-3 0 9999
2 27464 82.4863 328.2558 0025295 197.8733 162.1460 12.44624394 90996
Epoch: Jul 13, 2026 • Age: 9 hours

現在のステータス

高度 1503.9 km
遠地点 / 近地点 N/A
速度 7.12 km/s
衛星直下点 -74.21°S, 146.72°E
打ち上げ日 Jul 8, 2002
運用期間 24 years
タイプ other

技術仕様

分類 Payload
質量 225.00 kg
乾燥質量 225.00 kg
総質量 225.00 kg
長さ 1.60 m
直径 0.80 m
スパン 7.00 m
形状 Cyl + Ant
製造者 NPOPMR
バスタイプ Strela-3
フェーズステータス In Orbit
所有者/国 KVR/RU

Most Searched